Retour au catalogue

IRIDIUM 33 DEB

ActifPO
NORAD 34525·DEBRIS·🇺🇸 United States

Lancé Sep 14, 1997 depuis Baikonur Cosmodrome

Loading…

Prochains Passages (prochaines 24 heures)

TLE

FraisSource: Space-Track

Époque: Sep 14, 2026, 20:42 UTC

1 34525U 97051HS  26257.86294382  .00000658  00000-0  18888-3 0  9990
2 34525  86.3686 288.9461 0002265 243.3738 295.3572 14.43506075920707

Suivez IRIDIUM 33 DEB en temps réel avec AllMySat

Download on the App Store